EN

Hourly Weather Ladek

Today, 23 July, Friday

Time Temperature Precipitation Wind Pressure Humidity
00:00 +18°C° 0 mm 2 mps 755 mmHg 78%
01:00 +18°C° 0 mm 2 mps 755 mmHg 78%
02:00 +18°C° 0 mm 2 mps 755 mmHg 78%
03:00 +18°C° 0 mm 2 mps 755 mmHg 79%
04:00 +18°C° 0 mm 1 mps 754 mmHg 80%
05:00 +19°C° 0 mm 1 mps 754 mmHg 78%
06:00 +19°C° 0 mm 1 mps 754 mmHg 77%
07:00 +20°C° 0 mm 1 mps 754 mmHg 76%
08:00 +21°C° 0 mm 1 mps 754 mmHg 73%
09:00 +21°C° 0 mm 1 mps 755 mmHg 70%
10:00 +22°C° 0 mm 1 mps 755 mmHg 68%
11:00 +23°C° 0.1 mm 2 mps 754 mmHg 63%
12:00 +24°C° 0.1 mm 2 mps 754 mmHg 58%
13:00 +25°C° 0.1 mm 2 mps 754 mmHg 54%
14:00 +25°C° 0 mm 2 mps 754 mmHg 53%
15:00 +26°C° 0 mm 2 mps 753 mmHg 52%
16:00 +26°C° 0 mm 2 mps 753 mmHg 51%
17:00 +25°C° 0 mm 2 mps 753 mmHg 55%
18:00 +24°C° 0 mm 1 mps 753 mmHg 60%
19:00 +23°C° 0 mm 1 mps 753 mmHg 64%
20:00 +23°C° 0 mm 1 mps 753 mmHg 64%
21:00 +22°C° 0 mm 1 mps 753 mmHg 63%
22:00 +22°C° 0 mm 1 mps 753 mmHg 63%
23:00 +22°C° 0 mm 1 mps 753 mmHg 64%

Tomorrow, 24 July, Saturday

Time Temperature Precipitation Wind Pressure Humidity
00:00 +21°C° 0 mm 1 mps 753 mmHg 64%
01:00 +21°C° 0 mm 1 mps 753 mmHg 65%
02:00 +21°C° 0 mm 1 mps 753 mmHg 66%
03:00 +21°C° 0 mm 1 mps 753 mmHg 66%
04:00 +20°C° 0 mm 1 mps 753 mmHg 67%
05:00 +21°C° 0 mm 1 mps 753 mmHg 68%
06:00 +21°C° 0 mm 1 mps 753 mmHg 70%
07:00 +21°C° 0 mm 1 mps 753 mmHg 71%
08:00 +22°C° 0 mm 1 mps 753 mmHg 68%
09:00 +23°C° 0 mm 2 mps 753 mmHg 64%
10:00 +24°C° 0 mm 2 mps 753 mmHg 61%
11:00 +25°C° 0 mm 2 mps 753 mmHg 55%
12:00 +26°C° 0 mm 2 mps 753 mmHg 50%
13:00 +27°C° 0 mm 2 mps 753 mmHg 44%
14:00 +27°C° 0 mm 2 mps 753 mmHg 44%
15:00 +27°C° 0 mm 3 mps 753 mmHg 45%
16:00 +27°C° 0 mm 3 mps 752 mmHg 45%
17:00 +26°C° 0 mm 3 mps 752 mmHg 51%
18:00 +25°C° 0 mm 3 mps 752 mmHg 57%
19:00 +24°C° 0 mm 3 mps 752 mmHg 63%
20:00 +22°C° 0 mm 3 mps 752 mmHg 64%
21:00 +21°C° 0 mm 3 mps 752 mmHg 65%
22:00 +20°C° 0 mm 3 mps 752 mmHg 66%
23:00 +19°C° 0 mm 3 mps 752 mmHg 67%

Day after tomorrow, 25 July, Sunday

Time Temperature Precipitation Wind Pressure Humidity
00:00 +19°C° 0 mm 3 mps 752 mmHg 68%
01:00 +18°C° 0 mm 3 mps 752 mmHg 70%
02:00 +18°C° 0 mm 3 mps 752 mmHg 71%
03:00 +18°C° 0 mm 3 mps 752 mmHg 73%
04:00 +17°C° 0 mm 3 mps 752 mmHg 74%
05:00 +19°C° 0 mm 3 mps 752 mmHg 72%
06:00 +20°C° 0 mm 4 mps 752 mmHg 70%
07:00 +21°C° 0 mm 4 mps 752 mmHg 67%
08:00 +23°C° 0 mm 4 mps 751 mmHg 62%
09:00 +26°C° 0 mm 5 mps 751 mmHg 57%
10:00 +28°C° 0 mm 5 mps 751 mmHg 52%
11:00 +28°C° 0 mm 5 mps 751 mmHg 51%
12:00 +28°C° 0 mm 5 mps 751 mmHg 51%
13:00 +29°C° 0 mm 5 mps 751 mmHg 50%
14:00 +27°C° 0.1 mm 5 mps 751 mmHg 56%
15:00 +26°C° 0.1 mm 5 mps 752 mmHg 62%
16:00 +23°C° 0.1 mm 5 mps 752 mmHg 69%
17:00 +22°C° 0.2 mm 4 mps 752 mmHg 73%
18:00 +21°C° 0.2 mm 3 mps 752 mmHg 77%
19:00 +20°C° 0.2 mm 2 mps 752 mmHg 82%
20:00 +19°C° 0.6 mm 2 mps 752 mmHg 85%
21:00 +19°C° 0.6 mm 3 mps 752 mmHg 88%
22:00 +19°C° 0.6 mm 3 mps 752 mmHg 90%
23:00 +19°C° 0.3 mm 4 mps 751 mmHg 91%

26 July, Monday

Time Temperature Precipitation Wind Pressure Humidity
00:00 +19°C° 0.3 mm 4 mps 751 mmHg 91%
01:00 +19°C° 0.3 mm 5 mps 750 mmHg 92%
02:00 +19°C° 0 mm 4 mps 750 mmHg 92%
03:00 +18°C° 0 mm 4 mps 750 mmHg 92%
04:00 +18°C° 0 mm 3 mps 750 mmHg 92%
05:00 +19°C° 0 mm 3 mps 750 mmHg 89%
06:00 +20°C° 0 mm 2 mps 749 mmHg 85%
07:00 +21°C° 0 mm 2 mps 749 mmHg 82%
08:00 +23°C° 0 mm 2 mps 750 mmHg 76%
09:00 +25°C° 0 mm 2 mps 750 mmHg 71%
10:00 +26°C° 0 mm 2 mps 750 mmHg 65%
11:00 +27°C° 0 mm 2 mps 750 mmHg 62%
12:00 +28°C° 0 mm 3 mps 750 mmHg 59%
13:00 +29°C° 0 mm 3 mps 750 mmHg 56%
14:00 +29°C° 0 mm 3 mps 750 mmHg 54%
15:00 +30°C° 0 mm 3 mps 750 mmHg 52%
16:00 +30°C° 0 mm 3 mps 750 mmHg 51%
17:00 +29°C° 0 mm 3 mps 750 mmHg 55%
18:00 +28°C° 0 mm 2 mps 750 mmHg 60%
19:00 +27°C° 0 mm 2 mps 749 mmHg 65%
20:00 +25°C° 0 mm 2 mps 750 mmHg 69%
21:00 +24°C° 0 mm 3 mps 750 mmHg 73%
22:00 +22°C° 0 mm 4 mps 750 mmHg 77%
23:00 +21°C° 0.3 mm 3 mps 750 mmHg 82%

27 July, Tuesday

Time Temperature Precipitation Wind Pressure Humidity
00:00 +20°C° 0.3 mm 3 mps 750 mmHg 88%
01:00 +19°C° 0.3 mm 2 mps 750 mmHg 93%
02:00 +19°C° 0.1 mm 2 mps 751 mmHg 93%
03:00 +19°C° 0.1 mm 2 mps 751 mmHg 94%
04:00 +19°C° 0.1 mm 2 mps 751 mmHg 94%
05:00 +20°C° 0 mm 2 mps 751 mmHg 90%
06:00 +20°C° 0 mm 3 mps 751 mmHg 87%
07:00 +21°C° 0 mm 3 mps 751 mmHg 83%
08:00 +24°C° 0 mm 3 mps 751 mmHg 75%
09:00 +25°C° 0 mm 3 mps 752 mmHg 67%
10:00 +27°C° 0 mm 3 mps 752 mmHg 59%
11:00 +28°C° 0 mm 3 mps 752 mmHg 55%
12:00 +29°C° 0 mm 3 mps 752 mmHg 52%
13:00 +30°C° 0 mm 3 mps 752 mmHg 48%
14:00 +29°C° 0 mm 3 mps 752 mmHg 51%
15:00 +28°C° 0 mm 3 mps 752 mmHg 53%
16:00 +28°C° 0 mm 3 mps 751 mmHg 56%
17:00 +27°C° 0 mm 3 mps 751 mmHg 59%
18:00 +26°C° 0 mm 2 mps 751 mmHg 61%
19:00 +26°C° 0 mm 1 mps 751 mmHg 63%
20:00 +25°C° 0.1 mm 1 mps 751 mmHg 64%
21:00 +24°C° 0.1 mm 1 mps 751 mmHg 65%
22:00 +24°C° 0.1 mm 1 mps 752 mmHg 66%
23:00 +23°C° 0 mm 1 mps 752 mmHg 67%

28 July, Wednesday

Time Temperature Precipitation Wind Pressure Humidity
00:00 +22°C° 0 mm 1 mps 752 mmHg 69%
01:00 +22°C° 0 mm 1 mps 752 mmHg 71%
02:00 +21°C° 0 mm 2 mps 752 mmHg 72%
03:00 +21°C° 0 mm 2 mps 751 mmHg 72%
04:00 +20°C° 0 mm 3 mps 751 mmHg 73%
05:00 +20°C° 0.3 mm 3 mps 752 mmHg 76%
06:00 +19°C° 0.3 mm 3 mps 752 mmHg 79%
07:00 +19°C° 0.3 mm 4 mps 752 mmHg 82%
08:00 +20°C° 0 mm 4 mps 753 mmHg 76%
09:00 +21°C° 0 mm 4 mps 753 mmHg 70%
10:00 +22°C° 0 mm 4 mps 753 mmHg 65%
11:00 +23°C° 0 mm 4 mps 753 mmHg 58%
12:00 +26°C° 0 mm 4 mps 752 mmHg 51%
13:00 +28°C° 0 mm 4 mps 752 mmHg 45%
14:00 +28°C° 0 mm 4 mps 752 mmHg 44%
15:00 +28°C° 0 mm 4 mps 752 mmHg 42%
16:00 +28°C° 0 mm 4 mps 752 mmHg 41%
17:00 +27°C° 0 mm 4 mps 752 mmHg 47%
18:00 +26°C° 0 mm 3 mps 752 mmHg 53%
19:00 +25°C° 0 mm 2 mps 752 mmHg 60%
20:00 +24°C° 0 mm 2 mps 752 mmHg 61%
21:00 +23°C° 0 mm 2 mps 752 mmHg 63%
22:00 +23°C° 0 mm 2 mps 752 mmHg 65%
23:00 +21°C° 0 mm 3 mps 752 mmHg 65%
Show more